Meath Environmental Platform

Observations for Trim Market St

Time AQI Temp °C Hum % Pres Pa CO μg/m³ H₂S μg/m³ NO μg/m³ NO₂ μg/m³ O₃ μg/m³ SO₂ μg/m³ PM1 μg/m³ PM2.5 μg/m³ PM10 μg/m³
Thursday 16 July 2026
13:47 1 37.6 29 66,696 0 0 0 0 39.33 0.38 8.55 16.43 22.33
13:46 1 37.5 29 66,686 0 0 0 0 39.19 0 7.84 14.25 20.59
13:45 1 37.4 29 66,700 0 0 0 0 28.02 0 9.26 14.79 21.46
13:44 1 37.3 29 66,665 0 0 0 0 36.38 0 9.26 15.87 22.31
13:43 1 37.2 29 66,677 0 0 0 0 27.63 0 9.26 15.31 20.56
13:42 1 37.2 29 66,661 0 0 0 2.3 44.53 0 7.13 13.67 19.68
13:41 1 37 29 66,671 0 0 0 0 25.66 0 9.26 17.48 24.03
13:40 1 36.9 30 66,655 0 0 0 2.77 33.73 0 6.41 13.12 20.54
13:39 1 36.8 30 66,661 0 0 0 0.48 27.65 0 8.55 13.65 19.66
13:38 1 36.8 30 66,647 0 0 0 0 24.69 0 7.84 13.64 21.37
13:37 1 36.8 30 66,629 0.26 0 0 4.06 38.14 0 6.41 12.55 16.18
13:36 1 36.8 30 66,633 0 0 0 4.78 24.27 0 8.55 13.11 19.66
13:34 1 36.9 30 66,641 0 0 0 0 28.78 0 7.13 11.49 15.33
13:31 1 36.9 30 66,637 0 0 0 0 23.88 0 7.13 13.66 20.54
13:29 1 36.8 30 66,657 0 0 0 2.17 30.94 0 8.55 13.65 18.79
13:23 1 36.1 31 66,566 0 0 0 0 37.94 0 9.98 14.65 21.28
13:18 1 35.5 31 66,499 0 0 0 0 36.56 0 9.26 16.25 22.96
13:17 1 35.4 32 66,507 0 0 0 5.64 30.93 0 7.84 15.14 22.92
13:16 1 35.3 32 66,467 0 0 0 3.17 46.01 0 8.55 13.52 18.65
13:15 1 35.2 31 66,474 0 0 0 1.83 43.93 0 9.26 14.08 19.53